AirNav   Pilot Hours Calculator
 
 1258 users online  

9NC9 Meylor Field Airport
Greensboro, North Carolina, USA

GOING TO GREENSBORO?


FAA INFORMATION EFFECTIVE 16 JUNE 2022

Location

FAA Identifier: 9NC9
Lat/Long: 36-12-36.4880N 079-53-42.1290W
36-12.608133N 079-53.702150W
36.2101356,-79.8950358
(estimated)
Elevation: 910 ft. / 277 m (estimated)
Variation: 07W (1990)
From city: 5 miles NW of GREENSBORO, NC
Time zone: UTC -4 (UTC -5 during Standard Time)
Zip code: 27358

Airport Operations

Airport use: Private use, PERSONAL USE.
Activation date: 03/1992
Control tower: no
ARTCC: ATLANTA CENTER
FSS: RALEIGH FLIGHT SERVICE STATION
Attendance: UNATNDD
Wind indicator: yes
Segmented circle: no

Airport Communications

WX ASOS at GSO (7 nm S): 128.55 (336-393-0168)
WX AWOS-3 at SIF (14 nm N): 119.775 (336-573-3677)
WX ASOS at INT (16 nm W): PHONE 336-661-3096

Airport Services

Runway Information

Runway 9/27

Dimensions: 1500 x 100 ft. / 457 x 30 m
Surface: turf, in excellent condition
RUNWAY 9  RUNWAY 27
Traffic pattern: rightright
Obstructions: 50 ft. treesnone

Airport Ownership and Management from official FAA records

Ownership: Privately-owned
Owner: DEAN MEYLOR
306A MUIRS CHAPEL RD
GREENSBORO, NC 27410
Phone 336-852-2222
Manager: DEAN MEYLOR
2237 SCALESVILLE ROAD
SUMMERFIELD, NC 27358
Phone 336-643-9797
CELL: 336-207-9707

Airport Operational Statistics

Aircraft based on the field: 2
Single engine airplanes: 2
    

Additional Remarks

50 FT TREES ON APCH OF RWY 09.
FOR CD CTC ATLANTA ARTCC AT 770-210-7692.
DEPART RWY 09; LAND RWY 27

Instrument Procedures

There are no published instrument procedures at 9NC9.

Some nearby airports with instrument procedures:

KGSO - Piedmont Triad International Airport (7 nm S)
N63 - Meadow Brook Field Airport (13 nm NW)
KSIF - Rockingham County NC Shiloh Airport (14 nm N)
KINT - Smith Reynolds Airport (16 nm W)
2A5 - Causey Airport (22 nm SE)
 
Loc | Ops | Rwys | IFR | FBO | Links
Com | Nav | Svcs | Stats | Notes
Area around 9NC9 (Meylor Field Airport)
 
Road maps at: MapQuest Bing Google
 
Aerial photo
No photo
 
Sectional chart

 
Airport distance calculator
Flying to Meylor Field Airport? Find the distance to fly.

From to 9NC9

Sunrise and sunset
Times for 29-Jun-2022
 Local
(UTC-4)
 Zulu
(UTC)
Morning civil twilight05:3609:36
Sunrise06:0610:06
Sunset20:4000:40
Evening civil twilight21:1001:10

Current date and time
Zulu (UTC)  29-Jun-2022 23:52:32
Local (UTC-4)  29-Jun-2022 19:52:32
 
METAR
KGSO 
7nm S 
292254Z 17010KT 10SM BKN050 BKN250 27/19 A3021 RMK AO2 SLP218 T02720194
KSIF 
14nm N 
292335Z AUTO 16004KT 10SM CLR 29/20 A3020 RMK AO2 T02860196
KINT 
16nm W 
292254Z 20004KT 10SM FEW034 29/20 A3022 RMK AO2 SLP221 T02890200
TAF
KGSO 
7nm S 
291756Z 2918/3018 16005KT P6SM SCT030 BKN100 BKN250
KINT 
16nm W 
291740Z 2918/3018 VRB04KT P6SM SCT030 SCT100 BKN250
NOTAMs
Click for the latest NOTAMs
NOTAMs are issued by the DoD/FAA and will open in a separate window not controlled by AirNav.

 

 
 

Would you like to see your business listed on this page?

 If your business provides an interesting product or service to pilots, flight crews, aircraft, or users of the Meylor Field Airport, you should consider listing it here.  To start the listing process, click on the button below
 
Add a business
 

Other Pages about Meylor Field Airport

Update a link
 
Copyright © AirNav, LLC. All rights reserved. Privacy Policy  Contact